TimeEET,TemperatureF,Dew PointF,Humidity,Sea Level PressureIn,VisibilityMPH,Wind Direction,Wind SpeedMPH,Gust SpeedMPH,PrecipitationIn,Events,Conditions,WindDirDegrees,DateUTC
12:20 AM,57.2,53.6,88,29.95,6.2,West,1.2,-,N/A,,Mostly Cloudy,270,2012-10-31 22:20:00
12:50 AM,57.2,53.6,88,29.95,6.2,WSW,2.3,-,N/A,,Mostly Cloudy,250,2012-10-31 22:50:00
1:20 AM,57.2,53.6,88,29.95,6.2,WNW,1.2,-,N/A,,Mostly Cloudy,300,2012-10-31 23:20:00
1:50 AM,57.2,53.6,88,29.95,6.2,SW,2.3,-,N/A,,Mostly Cloudy,220,2012-10-31 23:50:00
2:20 AM,55.4,53.6,94,29.95,6.2,Variable,1.2,-,N/A,,Mostly Cloudy,0,2012-11-01 00:20:00
2:50 AM,55.4,53.6,94,29.95,6.2,West,2.3,-,N/A,,Mostly Cloudy,260,2012-11-01 00:50:00
3:20 AM,55.4,53.6,94,29.92,6.2,NW,1.2,-,N/A,,Mostly Cloudy,320,2012-11-01 01:20:00
3:50 AM,55.4,51.8,88,29.92,6.2,NNW,1.2,-,N/A,,Mostly Cloudy,340,2012-11-01 01:50:00
4:20 AM,55.4,51.8,88,29.92,6.2,West,3.5,-,N/A,,Mostly Cloudy,260,2012-11-01 02:20:00
4:50 AM,55.4,53.6,94,29.92,6.2,West,3.5,-,N/A,,Mostly Cloudy,270,2012-11-01 02:50:00
5:20 AM,55.4,53.6,94,29.92,6.2,NW,2.3,-,N/A,,Mostly Cloudy,310,2012-11-01 03:20:00
5:50 AM,57.2,55.4,94,29.92,6.2,WNW,4.6,-,N/A,,Mostly Cloudy,290,2012-11-01 03:50:00
6:20 AM,57.2,53.6,88,29.92,6.2,Variable,2.3,-,N/A,,Mostly Cloudy,0,2012-11-01 04:20:00
6:50 AM,59.0,51.8,77,29.89,6.2,Variable,2.3,-,N/A,,Mostly Cloudy,0,2012-11-01 04:50:00
7:20 AM,60.8,53.6,77,29.89,6.2,WSW,3.5,-,N/A,,Mostly Cloudy,250,2012-11-01 05:20:00
7:50 AM,62.6,53.6,72,29.89,6.2,WSW,3.5,-,N/A,,Mostly Cloudy,250,2012-11-01 05:50:00
8:20 AM,64.4,55.4,73,29.89,6.2,West,2.3,-,N/A,,Mostly Cloudy,260,2012-11-01 06:20:00
8:50 AM,64.4,53.6,68,29.92,6.2,Variable,1.2,-,N/A,,Mostly Cloudy,0,2012-11-01 06:50:00
9:20 AM,68.0,55.4,64,29.89,6.2,Variable,1.2,-,N/A,,Drizzle,0,2012-11-01 07:20:00
9:50 AM,69.8,57.2,64,29.89,6.2,SSE,4.6,-,N/A,,Mostly Cloudy,150,2012-11-01 07:50:00
10:20 AM,69.8,59.0,68,29.89,6.2,SE,9.2,-,N/A,,Mostly Cloudy,140,2012-11-01 08:20:00
10:50 AM,71.6,59.0,64,29.89,6.2,SSE,9.2,-,N/A,,Mostly Cloudy,150,2012-11-01 08:50:00
11:20 AM,71.6,59.0,64,29.89,6.2,SSE,10.4,-,N/A,,Mostly Cloudy,150,2012-11-01 09:20:00
11:50 AM,73.4,59.0,61,29.86,6.2,SE,11.5,-,N/A,,Mostly Cloudy,140,2012-11-01 09:50:00
12:20 PM,73.4,59.0,61,29.86,6.2,SSE,12.7,-,N/A,,Mostly Cloudy,150,2012-11-01 10:20:00
12:50 PM,73.4,60.8,65,29.83,6.2,SSE,12.7,-,N/A,,Mostly Cloudy,150,2012-11-01 10:50:00
1:20 PM,73.4,59.0,61,29.80,6.2,SSE,13.8,-,N/A,,Mostly Cloudy,150,2012-11-01 11:20:00
1:50 PM,73.4,60.8,65,29.80,6.2,SE,11.5,-,N/A,,Mostly Cloudy,140,2012-11-01 11:50:00
2:20 PM,73.4,60.8,65,29.80,6.2,SE,10.4,-,N/A,,Mostly Cloudy,130,2012-11-01 12:20:00
2:50 PM,73.4,60.8,65,29.80,6.2,SSE,15.0,-,N/A,,Mostly Cloudy,150,2012-11-01 12:50:00
3:20 PM,73.4,62.6,69,29.80,6.2,SSE,11.5,-,N/A,,Mostly Cloudy,150,2012-11-01 13:20:00
3:50 PM,73.4,60.8,65,29.77,6.2,South,10.4,-,N/A,,Overcast,170,2012-11-01 13:50:00
4:20 PM,73.4,60.8,65,29.80,6.2,South,8.1,-,N/A,,Overcast,180,2012-11-01 14:20:00
4:50 PM,73.4,60.8,65,29.77,6.2,SSE,10.4,-,N/A,,Overcast,160,2012-11-01 14:50:00
5:20 PM,73.4,62.6,69,29.77,6.2,South,12.7,-,N/A,,Mostly Cloudy,170,2012-11-01 15:20:00
5:50 PM,73.4,62.6,69,29.77,6.2,South,10.4,-,N/A,,Mostly Cloudy,170,2012-11-01 15:50:00
6:20 PM,71.6,62.6,73,29.77,6.2,Variable,3.5,-,N/A,,Mostly Cloudy,0,2012-11-01 16:20:00
6:50 PM,69.8,60.8,73,29.77,6.2,Variable,1.2,-,N/A,,Scattered Clouds,0,2012-11-01 16:50:00
7:20 PM,69.8,62.6,78,29.80,6.2,NNW,4.6,-,N/A,,Mostly Cloudy,330,2012-11-01 17:20:00
7:50 PM,69.8,62.6,78,29.77,6.2,NNW,3.5,-,N/A,,Mostly Cloudy,340,2012-11-01 17:50:00
8:20 PM,69.8,62.6,78,29.77,6.2,Variable,3.5,-,N/A,,Mostly Cloudy,0,2012-11-01 18:20:00
8:50 PM,69.8,62.6,78,29.77,6.2,Variable,1.2,-,N/A,,Mostly Cloudy,0,2012-11-01 18:50:00
9:20 PM,69.8,62.6,78,29.77,6.2,Variable,2.3,-,N/A,,Scattered Clouds,0,2012-11-01 19:20:00
10:20 PM,71.6,62.6,73,29.77,6.2,SSW,5.8,-,N/A,,Partly Cloudy,210,2012-11-01 20:20:00
10:50 PM,71.6,62.6,73,29.77,6.2,SSW,8.1,-,N/A,,Partly Cloudy,210,2012-11-01 20:50:00
11:20 PM,73.4,64.4,73,29.77,6.2,South,15.0,-,N/A,,Partly Cloudy,190,2012-11-01 21:20:00
11:50 PM,73.4,64.4,73,29.77,6.2,SSW,16.1,-,N/A,,Partly Cloudy,200,2012-11-01 21:50:00